Temperature
19 19 19 19 19 20 20 20 20 20 20 20 20 20 20 20 20 20 19 19 19 19 19 19 19 19 19 19 19 19 19 19 18 18 18 18 18 18 18 18 18 18 18
19 19 19 19 19 19 19 19 19 19 20 20 20 20 20 19 19 19 19 19 19 19 19 19 19 19 19 19 19 19 19 18 18 18 18 18 18 18 18 18 18 18 18
19 19 19 19 19 19 19 19 19 19 19 19 19 19 19 19 19 19 19 19 19 19 19 19 19 19 19 19 19 19 18 18 18 18 18 18 18 18 18 18 18 18 18
19 19 19 19 19 19 19 19 19 19 19 19 19 19 19 19 19 19 19 19 19 19 19 19 19 19 19 19 19 19 18 18 18 18 18 18 18 18 18 18 18 18 18
19 19 19 19 19 19 19 19 19 19 19 19 19 19 19 19 19 19 19 19 19 19 19 19 19 19 19 19 19 18 18 18 18 18 18 18 18 18 18 18 18 18 18
19 18 18 19 19 19 19 19 19 19 19 19 19 19 19 19 19 19 19 19 19 19 19 19 19 19 19 19 19 18 18 18 18 18 18 18 18 18 18 18 18 18 18
19 18 18 18 18 18 18 18 18 18 18 18 19 19 19 19 19 19 19 19 19 19 19 19 19 19 19 19 19 18 18 18 18 18 18 18 18 18 18 18 18 18 18
18 18 18 18 18 18 18 18 18 18 18 18 18 18 18 18 18 19 19 19 19 19 19 19 19 19 19 19 19 18 18 18 18 18 18 18 18 18 18 18 18 18 18
18 18 18 18 17 17 17 17 17 17 17 18 18 18 18 18 18 18 18 18 18 18 18 19 19 19 19 19 19 19 18 18 18 18 18 18 18 18 18 18 18 18 18
18 18 17 17 17 17 17 17 17 17 17 17 17 17 17 18 18 18 18 18 18 18 18 18 18 18 18 19 19 19 18 18 18 18 18 18 18 18 18 18 18 18 18
18 17 17 17 17 16 16 16 16 16 16 16 16 17 17 17 17 17 18 18 18 18 18 18 18 18 18 18 18 18 18 18 18 18 18 18 18 18 18 18 18 18 18
18 17 17 17 16 16 16 16 16 16 16 16 16 16 16 16 17 17 17 17 17 18 18 18 18 18 18 18 18 18 18 18 18 18 18 18 18 18 18 18 18 18 18
17 17 17 16 16 16 16 15 15 15 15 15 16 16 16 16 16 16 17 17 17 17 17 18 18 18 18 18 18 18 18 18 18 18 18 18 18 18 18 18 18 18 18
17 17 16 16 16 15 15 15 15 15 15 15 15 15 15 16 16 16 16 16 16 17 17 17 17 17 18 18 18 18 18 18 18 18 18 18 18 18 18 18 18 18 18
17 16 16 15 15 15 15 15 15 15 15 15 15 15 15 15 15 15 16 16 16 16 16 17 17 17 17 18 18 18 18 18 18 18 18 18 18 18 18 18 18 18 18
17 16 16 15 15 15 14 14 14 14 14 14 14 15 15 15 15 15 15 15 16 16 16 16 16 17 17 17 17 18 18 18 18 18 18 18 18 18 18 18 18 18 18
16 16 15 15 15 14 14 14 14 14 14 14 14 14 14 14 15 15 15 15 15 15 16 16 16 16 17 17 17 17 17 18 18 18 18 18 18 18 18 18 18 18 18
16 16 15 15 14 14 14 14 14 14 14 14 14 14 14 14 14 14 14 15 15 15 15 15 16 16 16 17 17 17 17 17 17 18 18 18 18 18 18 18 18 18 18
16 15 15 15 14 14 14 14 14 14 14 13 14 14 14 14 14 14 14 14 14 15 15 15 15 15 16 16 17 17 17 17 17 17 18 18 18 18 18 18 18 18 18
16 15 15 14 14 14 13 13 13 13 13 13 13 13 13 14 14 14 14 14 14 14 14 15 15 15 15 16 16 16 17 17 17 17 17 18 18 18 18 18 18 18 18
16 15 15 14 14 13 13 13 13 13 13 13 13 13 13 13 13 13 14 14 14 14 14 14 14 15 15 15 15 16 16 17 17 17 17 18 18 18 18 18 18 18 18
15 15 14 14 13 13 13 13 13 12 12 12 13 13 13 13 13 13 13 13 14 14 14 14 14 14 15 15 15 15 15 16 17 17 17 17 17 18 18 18 18 18 18
15 15 14 14 13 13 13 13 13 12 12 12 12 13 13 13 13 13 13 13 13 13 13 14 14 14 14 14 14 14 15 16 16 17 17 17 17 17 17 18 18 18 18
15 15 14 13 13 13 13 12 12 12 12 12 12 12 12 12 12 12 13 13 13 13 13 13 13 14 14 14 14 14 14 15 15 16 17 17 17 17 17 17 18 17 17
15 15 14 13 13 13 13 12 12 12 12 12 12 12 12 12 12 12 12 13 13 13 13 13 13 13 13 14 14 14 14 14 15 15 15 16 16 17 17 17 17 17 17
15 15 14 13 13 13 13 12 12 12 12 12 12 12 12 12 12 12 12 12 12 13 13 13 13 13 13 13 14 14 14 14 14 15 15 15 16 16 16 17 17 17 17
Wind_Speed
4 8 12 11 10 9 9 9 8 8 8 7 7 6 6 7 7 7 6 6 6 6 6 6 6 6 6 7 6 6 7 7 6 6 6 6 7 8 8 9 9 8 10
8 10 13 11 10 9 9 8 8 7 7 6 6 6 5 5 5 5 5 4 4 4 4 5 5 5 5 5 5 5 5 5 5 4 4 4 6 7 8 9 8 8 9
9 11 12 12 10 9 8 8 7 7 6 6 5 5 4 4 4 4 4 3 3 3 3 3 3 3 3 3 3 4 5 5 5 4 2 3 4 6 7 8 8 8 8
10 10 10 11 10 9 8 7 6 6 6 5 5 5 4 4 4 4 3 3 3 3 2 2 2 2 1 1 2 3 4 5 5 3 2 4 4 5 6 7 7 7 7
7 8 9 9 8 8 7 6 5 5 5 5 5 5 5 5 5 5 5 4 4 4 3 3 3 2 1 1 1 3 4 5 5 3 2 5 5 6 6 6 7 7 7
6 6 7 8 7 6 5 5 5 5 5 5 5 6 6 6 6 6 6 6 6 5 5 5 5 4 3 2 2 3 4 5 4 2 3 6 6 7 7 6 6 6 6
5 5 6 6 6 6 5 4 4 5 5 6 6 7 7 7 8 8 8 8 8 7 7 6 6 5 5 4 4 4 4 5 2 1 3 6 7 8 7 7 7 6 6
5 4 4 4 4 4 4 4 4 5 6 6 6 7 8 8 9 9 9 9 9 9 9 8 7 7 7 6 6 6 5 5 2 1 3 6 8 9 8 8 7 7 6
4 3 2 1 1 2 3 4 5 5 7 8 8 8 8 9 10 10 10 10 11 11 11 10 10 9 8 8 8 8 7 6 4 2 3 6 9 9 9 8 8 7 7
2 2 1 0 1 2 3 5 5 6 7 8 9 10 10 10 10 10 10 10 11 12 12 12 11 11 10 10 10 9 9 7 5 4 5 7 10 11 10 9 8 8 7
2 1 1 1 2 2 4 5 6 6 6 7 8 9 9 8 8 8 10 11 12 12 12 13 12 12 11 11 12 11 10 7 6 6 6 9 12 12 11 10 9 9 8
2 1 1 1 2 3 4 5 5 6 7 7 8 8 8 7 7 8 9 10 11 11 12 13 13 13 12 9 10 10 8 8 7 7 8 11 13 13 12 11 10 10 9
2 3 2 2 2 2 2 4 4 5 6 6 7 8 7 6 6 7 6 7 7 8 8 9 10 9 8 7 7 6 7 7 7 8 10 13 15 14 13 13 12 11 10
4 4 3 3 3 4 4 3 3 3 3 4 6 7 5 3 3 3 3 4 4 4 4 4 4 6 7 8 8 6 6 6 7 8 11 16 17 16 15 14 13 12 12
4 3 3 4 4 3 3 3 4 3 3 4 5 5 4 2 3 3 3 3 4 4 3 3 3 4 5 5 5 5 5 6 7 9 10 16 18 18 16 15 15 14 13
4 2 2 3 4 4 4 4 3 4 4 4 4 5 4 2 2 3 3 4 3 4 4 3 4 4 4 4 5 4 5 5 7 8 9 13 18 19 18 16 16 15 14
4 3 2 3 4 5 5 5 4 4 5 3 3 4 4 3 2 2 2 3 3 4 4 3 4 3 3 3 4 4 4 4 4 6 8 9 12 17 18 18 17 16 15
4 3 3 5 5 5 4 4 3 4 4 3 4 5 5 4 3 2 2 3 3 3 2 3 3 3 3 3 3 3 3 3 4 5 6 8 9 11 15 18 18 18 17
5 4 3 4 4 4 4 4 4 4 4 4 4 4 5 6 5 2 2 3 2 1 2 3 2 3 3 3 3 3 3 3 4 5 5 6 9 10 12 16 19 19 18
4 4 3 3 3 3 4 4 4 5 4 4 4 4 5 5 5 3 2 3 2 1 1 2 2 2 3 3 3 3 3 3 3 4 6 5 7 10 12 12 13 16 19
5 5 3 3 3 3 3 3 3 4 4 4 4 5 5 5 5 3 3 3 2 1 2 2 2 2 2 2 1 2 3 3 4 4 4 5 6 8 10 11 12 12 13
4 4 3 3 2 2 1 2 2 3 3 3 4 5 6 5 5 3 3 2 2 1 2 1 1 1 1 2 2 1 2 2 3 4 3 5 6 5 7 10 10 12 12
4 3 3 2 1 2 2 2 3 3 3 4 5 5 5 6 5 4 3 2 2 1 1 2 1 2 2 2 2 3 2 3 2 2 3 3 4 4 6 5 9 11 13
4 3 3 2 0 1 2 2 3 2 3 4 4 4 6 5 5 4 4 3 2 1 2 2 1 2 2 2 2 3 3 2 2 2 2 2 3 4 5 6 7 9 13
4 3 3 1 1 2 2 2 2 2 3 3 4 5 5 5 5 5 4 3 2 2 2 2 2 2 2 3 3 2 2 2 2 2 2 2 2 3 4 5 5 6 11
3 3 2 1 1 2 2 2 1 2 3 4 5 5 5 4 4 5 4 3 3 2 3 3 3 3 2 3 3 3 3 2 3 3 3 2 3 3 3 4 4 5 8
Wind_Direction
160 160 151 142 134 131 130 132 132 131 128 127 126 124 117 110 105 99 92 88 86 81 78 72 66 69 67 65 64 65 64 63 65 69 73 76 77 78 91 94 90 88 94
158 162 153 144 140 138 136 136 138 137 136 136 137 136 132 125 119 115 109 102 101 95 85 78 71 71 68 59 55 56 55 51 49 56 79 86 86 87 95 99 99 98 98
147 156 152 148 147 144 143 145 145 146 147 149 150 152 153 151 146 140 138 133 128 123 111 97 88 79 68 55 42 40 38 33 24 28 104 121 109 103 102 104 105 103 103
144 148 150 151 150 150 151 155 158 160 164 166 170 176 180 183 185 182 180 176 170 165 160 155 141 118 88 48 20 13 14 11 11 27 113 160 145 122 116 113 111 109 110
128 137 147 148 151 155 159 163 166 171 178 184 190 200 206 208 210 211 210 207 206 206 202 199 188 180 181 229 330 340 347 355 7 42 106 144 143 136 128 122 120 117 116
123 135 144 145 149 153 159 168 177 190 200 205 207 217 224 227 227 225 223 225 224 223 222 213 206 205 206 222 264 301 323 340 6 54 139 153 155 147 139 135 129 129 126
129 134 141 142 150 157 168 182 194 206 216 222 224 227 231 235 236 234 230 230 230 230 226 217 213 218 219 224 245 269 297 322 339 99 166 168 166 154 148 145 141 138 135
134 133 138 149 160 174 184 194 213 223 226 232 238 238 238 240 239 237 235 234 233 231 227 219 219 225 228 230 240 253 274 295 309 33 181 184 174 160 155 153 148 146 144
115 116 109 125 196 233 232 231 240 245 246 247 248 247 245 244 243 242 239 238 235 231 227 222 221 225 230 232 238 246 259 276 279 251 220 195 184 167 161 157 154 154 151
100 97 88 22 315 288 281 266 264 262 264 264 261 257 253 249 246 246 245 243 240 234 229 225 223 225 230 234 237 245 254 266 267 250 230 206 192 176 167 162 157 156 157
83 56 44 359 338 312 298 292 289 281 276 275 271 266 262 255 252 253 252 248 244 239 233 228 225 227 231 235 238 244 251 250 249 244 228 215 199 184 175 169 164 161 160
76 47 33 18 355 343 329 323 305 293 286 280 272 269 265 255 253 255 260 257 248 241 237 232 229 229 231 231 239 247 246 243 240 242 232 218 203 190 181 176 172 169 166
107 73 53 51 34 12 335 324 311 306 299 287 278 271 264 261 262 261 264 269 258 245 238 239 234 229 223 221 229 237 242 238 233 237 233 219 207 196 187 181 178 175 171
83 66 43 36 26 10 2 339 324 318 308 297 288 279 266 262 261 262 255 257 253 246 236 237 234 230 226 222 223 229 234 231 229 229 229 220 208 199 192 184 181 179 176
87 68 39 41 35 15 3 334 344 324 315 311 308 299 275 258 262 256 258 255 250 242 233 231 233 233 230 226 225 226 225 230 231 228 225 218 207 200 195 189 184 183 182
93 79 42 51 35 22 5 345 332 333 328 331 331 323 313 285 264 258 258 256 251 241 236 232 229 234 231 224 228 223 223 227 231 222 218 214 207 201 197 193 189 186 186
110 82 44 65 41 26 7 353 351 340 343 344 339 337 335 317 297 273 269 265 257 247 236 238 242 235 241 239 233 227 225 218 216 213 209 208 210 207 202 198 194 191 190
109 84 46 47 44 28 12 354 344 345 348 346 343 343 345 345 335 321 292 278 274 260 234 235 232 235 245 242 239 242 234 216 216 211 203 203 208 211 210 205 198 195 195
117 101 70 52 45 25 9 353 345 344 343 342 343 339 341 344 345 335 304 292 293 257 240 252 225 217 230 241 241 240 238 226 216 215 207 205 208 212 210 212 206 198 197
106 93 78 57 39 20 5 354 349 350 343 340 339 333 337 339 341 341 311 310 311 285 253 248 238 224 222 225 253 260 250 238 223 214 210 203 210 215 211 209 207 206 203
88 83 72 60 26 18 6 354 345 338 330 330 329 334 337 338 339 334 326 316 319 290 269 259 236 235 234 193 187 288 276 246 231 223 210 198 210 215 208 205 202 202 206
107 96 77 64 41 14 345 314 291 296 301 303 319 332 336 333 334 335 332 319 310 303 320 307 256 234 232 175 159 178 288 302 263 232 209 207 212 208 207 209 203 202 202
124 123 101 93 63 12 355 347 345 349 339 342 338 335 326 328 328 327 317 319 317 317 293 280 248 203 230 229 188 176 187 230 283 285 223 214 204 203 206 199 203 206 205
161 148 128 126 88 345 6 13 2 354 331 308 308 314 323 329 331 329 322 319 319 313 296 285 263 221 202 224 235 219 210 191 207 301 308 248 213 210 211 212 206 206 206
167 157 152 154 280 326 358 10 7 343 316 314 323 334 336 332 332 334 330 330 320 308 295 289 285 254 212 207 211 214 219 218 209 209 265 282 265 229 212 206 205 206 206
167 163 155 153 285 322 350 8 12 346 342 347 343 341 337 331 330 334 329 333 320 308 304 293 277 263 241 229 222 210 196 201 207 202 231 253 258 255 230 211 208 210 208
Height
1538 1539 1540 1540 1541 1541 1542 1542 1542 1542 1543 1543 1543 1543 1543 1543 1543 1543 1543 1543 1543 1542 1542 1542 1542 1542 1541 1541 1541 1540 1540 1539 1539 1538 1538 1538 1537 1537 1536 1536 1536 1536 1535
1537 1538 1540 1540 1541 1541 1541 1542 1542 1542 1542 1542 1542 1543 1543 1543 1543 1543 1542 1542 1542 1542 1542 1542 1541 1541 1541 1541 1541 1541 1541 1540 1540 1539 1539 1538 1538 1537 1537 1537 1536 1536 1536
1537 1538 1540 1540 1540 1541 1541 1541 1541 1541 1541 1542 1542 1542 1542 1542 1542 1542 1542 1541 1541 1541 1541 1541 1541 1541 1541 1541 1541 1541 1541 1540 1540 1539 1539 1539 1538 1538 1538 1537 1537 1537 1537
1537 1538 1539 1540 1540 1540 1540 1540 1540 1540 1540 1540 1540 1541 1541 1541 1541 1541 1540 1540 1540 1540 1540 1540 1540 1540 1540 1540 1541 1541 1541 1540 1540 1540 1539 1539 1539 1538 1538 1538 1538 1538 1538
1538 1538 1539 1539 1539 1539 1539 1539 1539 1539 1539 1539 1539 1539 1539 1539 1539 1539 1539 1539 1539 1539 1539 1539 1539 1539 1539 1540 1540 1540 1540 1540 1540 1540 1539 1539 1539 1539 1538 1538 1538 1538 1538
1538 1538 1538 1538 1538 1538 1538 1538 1537 1537 1537 1537 1537 1537 1538 1538 1537 1537 1537 1537 1537 1537 1537 1538 1538 1538 1538 1539 1539 1539 1540 1540 1540 1539 1539 1539 1539 1539 1539 1538 1538 1538 1539
1538 1538 1538 1537 1537 1537 1536 1536 1536 1535 1535 1535 1535 1535 1535 1536 1536 1536 1536 1535 1535 1536 1536 1536 1536 1536 1537 1537 1538 1538 1539 1539 1539 1539 1539 1539 1539 1539 1539 1538 1539 1539 1539
1538 1538 1537 1537 1536 1536 1535 1534 1534 1533 1533 1533 1533 1533 1533 1533 1533 1533 1533 1533 1533 1533 1534 1534 1534 1535 1535 1536 1536 1537 1538 1538 1538 1538 1538 1538 1539 1539 1538 1538 1538 1539 1539
1538 1538 1537 1536 1535 1534 1533 1532 1532 1531 1530 1530 1530 1530 1530 1530 1531 1531 1531 1531 1531 1531 1531 1532 1532 1533 1533 1534 1534 1535 1536 1537 1537 1538 1538 1538 1538 1538 1538 1538 1538 1538 1539
1538 1537 1536 1535 1534 1533 1531 1530 1530 1529 1528 1527 1527 1527 1527 1527 1527 1528 1528 1528 1528 1528 1529 1530 1530 1531 1531 1532 1533 1533 1534 1535 1536 1536 1537 1537 1537 1538 1538 1538 1538 1538 1539
1538 1537 1536 1534 1533 1531 1530 1529 1527 1526 1525 1524 1524 1523 1523 1523 1524 1524 1525 1525 1525 1526 1526 1527 1527 1528 1529 1530 1530 1531 1532 1533 1534 1535 1536 1536 1536 1537 1537 1537 1538 1538 1538
1537 1535 1534 1532 1531 1529 1528 1527 1525 1524 1523 1522 1521 1521 1520 1520 1520 1520 1521 1521 1522 1522 1523 1524 1525 1525 1526 1527 1528 1529 1530 1531 1532 1533 1534 1535 1535 1536 1536 1537 1537 1537 1538
1535 1534 1532 1531 1529 1527 1526 1524 1523 1522 1520 1519 1518 1518 1517 1517 1517 1517 1517 1518 1518 1519 1520 1521 1521 1522 1523 1525 1526 1527 1528 1529 1530 1531 1532 1533 1534 1534 1535 1536 1536 1537 1537
1534 1532 1531 1529 1527 1525 1523 1522 1520 1519 1518 1517 1516 1515 1514 1514 1513 1514 1514 1514 1515 1515 1516 1517 1518 1519 1520 1522 1523 1524 1525 1527 1528 1529 1530 1531 1532 1533 1534 1535 1535 1536 1537
1532 1531 1529 1527 1525 1523 1521 1519 1518 1516 1515 1514 1513 1512 1511 1511 1510 1510 1510 1511 1511 1512 1512 1513 1515 1516 1517 1518 1519 1521 1522 1524 1525 1527 1528 1529 1530 1531 1532 1533 1534 1535 1535
1531 1529 1527 1525 1523 1521 1519 1517 1515 1514 1512 1511 1510 1509 1508 1508 1507 1507 1507 1507 1507 1508 1509 1510 1511 1512 1513 1515 1516 1517 1519 1521 1522 1524 1525 1527 1528 1529 1531 1532 1532 1533 1534
1529 1528 1526 1524 1522 1519 1517 1515 1513 1511 1510 1508 1507 1506 1505 1505 1504 1504 1503 1503 1503 1504 1505 1506 1507 1508 1509 1511 1512 1514 1516 1518 1519 1521 1523 1524 1526 1527 1529 1530 1531 1532 1533
1528 1526 1524 1522 1520 1518 1515 1513 1511 1509 1507 1506 1505 1504 1503 1502 1501 1501 1500 1500 1500 1500 1501 1502 1503 1504 1505 1507 1508 1510 1512 1514 1515 1517 1519 1521 1523 1525 1527 1528 1529 1530 1531
1526 1525 1523 1521 1519 1516 1514 1511 1509 1507 1505 1504 1502 1501 1500 1499 1498 1497 1497 1497 1497 1497 1498 1499 1500 1501 1502 1503 1505 1506 1509 1510 1512 1514 1516 1518 1520 1522 1524 1526 1527 1528 1529
1525 1523 1522 1520 1518 1515 1513 1510 1508 1505 1504 1502 1500 1499 1498 1497 1496 1495 1494 1494 1494 1494 1495 1495 1496 1497 1499 1500 1501 1503 1504 1506 1508 1510 1512 1514 1516 1519 1521 1523 1524 1526 1527
1524 1522 1520 1518 1516 1514 1511 1508 1506 1504 1502 1500 1499 1497 1496 1494 1493 1492 1492 1491 1491 1491 1492 1492 1493 1494 1495 1497 1498 1499 1501 1503 1504 1506 1508 1510 1512 1515 1517 1520 1521 1523 1524
1523 1521 1520 1518 1515 1513 1510 1508 1506 1503 1501 1499 1497 1496 1494 1492 1491 1490 1490 1489 1489 1489 1489 1490 1490 1491 1492 1494 1495 1496 1498 1500 1500 1502 1504 1506 1508 1511 1513 1515 1518 1520 1522
1522 1521 1519 1517 1515 1513 1510 1508 1505 1503 1501 1498 1496 1494 1493 1491 1490 1489 1488 1487 1487 1487 1487 1487 1488 1488 1489 1491 1492 1495 1495 1495 1496 1498 1499 1501 1504 1506 1509 1511 1513 1516 1518
1521 1520 1518 1516 1514 1512 1510 1507 1505 1502 1500 1498 1495 1493 1492 1490 1489 1488 1487 1486 1485 1485 1485 1485 1485 1486 1487 1488 1489 1491 1493 1494 1495 1494 1496 1497 1500 1502 1504 1507 1509 1511 1514
1520 1519 1517 1516 1514 1512 1509 1507 1505 1502 1500 1497 1495 1493 1491 1489 1488 1487 1485 1485 1484 1483 1483 1483 1483 1483 1484 1485 1486 1488 1489 1491 1492 1493 1492 1494 1496 1498 1500 1502 1505 1507 1509
1520 1518 1517 1515 1513 1511 1509 1507 1504 1502 1499 1497 1495 1492 1490 1488 1487 1486 1485 1483 1482 1482 1481 1481 1481 1481 1482 1482 1483 1484 1486 1487 1488 1490 1490 1491 1492 1494 1496 1498 1500 1502 1505